Date String (YYYY-MM-DD hh:mm:ss) UTC,Instrument flags,absolute air pressure of the measurement (hPa),sample flow rate (lpm),inlet stack bypass flow (lpm),air temperature of the measurement (°C),ambient temperature measured by the external sensor (°C),aerosol sample conditioner tube jacket temperature (°C),OPC LED temperature (°C),internal box temperature (°C),relative humidity of the measurement (%),span deviation,mass concentration of particles derived from Lorenz-Mie calculation of OPC scattering (μg/m³),mass concentration of particles derived from Lorenz-Mie calculation of OPC scattering (μg/m³),mass concentration of particles derived from Lorenz-Mie calculation of OPC scattering (μg/m³)
DateTimeUTC,F1_M11,P_M11,Q1_M11,Q2_M11,T1_M11,T2_M11,T3_M11,T4_M11,T5_M11,U1_M11,ZSPAN_M11,X0_M11,X2_M11,X1_M11
2024-02-22 15:00:00,SystemResetWarning,0830.6,5.01,000.00,020.4,019.9,000.0,028.9,022.2,24.5,0000.0,0008.23,0003.70,0003.45
2024-02-22 15:01:00,SystemResetWarning,0830.6,5.01,000.00,020.4,019.8,000.0,028.8,022.2,24.4,0000.0,0008.30,0003.75,0003.47
2024-02-22 15:02:00,SystemResetWarning,0830.6,5.00,000.00,020.4,019.8,000.0,028.8,022.2,24.4,0000.0,0007.65,0003.77,0003.49
2024-02-22 15:03:00,SystemResetWarning,0830.5,4.99,000.00,020.4,019.8,000.0,028.8,022.2,24.3,0000.0,0007.58,0003.78,0003.50
2024-02-22 15:04:00,SystemResetWarning,0830.6,4.99,000.00,020.4,019.8,000.0,028.8,022.2,24.3,0000.0,0007.25,0003.79,0003.51
2024-02-22 15:05:00,SystemResetWarning,0830.6,4.99,000.00,020.4,019.8,000.0,028.8,022.2,24.4,0000.0,0006.43,0003.78,0003.52
2024-02-22 15:06:00,SystemResetWarning,0830.6,5.00,000.00,020.4,019.8,000.0,028.8,022.2,24.4,0000.0,0006.43,0003.81,0003.53
2024-02-22 15:07:00,SystemResetWarning,0830.5,5.00,000.00,020.3,019.8,000.0,028.8,022.2,24.5,0000.0,0006.33,0003.81,0003.54
2024-02-22 15:08:00,SystemResetWarning,0830.5,5.00,000.00,020.3,019.8,000.0,028.8,022.2,24.5,0000.0,0006.32,0003.85,0003.57
2024-02-22 15:09:00,SystemResetWarning,0830.7,5.01,000.00,020.3,019.8,000.0,028.8,022.1,24.5,0000.0,0006.34,0003.84,0003.56
2024-02-22 15:10:00,SystemResetWarning,0830.6,5.00,000.00,020.3,019.8,000.0,028.8,022.1,24.5,0000.0,0006.11,0003.80,0003.54
2024-02-22 15:11:00,SystemResetWarning,0830.5,5.00,000.00,020.3,019.8,000.0,028.8,022.1,24.5,0000.0,0005.86,0003.75,0003.52
2024-02-22 15:12:00,SystemResetWarning,0830.5,5.00,000.00,020.3,019.8,000.0,028.8,022.1,24.6,0000.0,0005.68,0003.71,0003.51
2024-02-22 15:13:00,SystemResetWarning,0830.6,5.00,000.00,020.3,019.8,000.0,028.8,022.2,24.8,0000.0,0005.71,0003.71,0003.51
2024-02-22 15:14:00,SystemResetWarning,0830.6,5.00,000.00,020.3,019.8,000.0,028.8,022.1,24.9,0000.0,0006.30,0003.73,0003.54
2024-02-22 15:15:00,SystemResetWarning,0830.6,5.00,000.00,020.3,019.8,000.0,028.8,022.1,25.0,0000.0,0007.25,0003.77,0003.57
2024-02-22 15:16:00,SystemResetWarning,0830.6,5.00,000.00,020.3,019.8,000.0,028.8,022.1,25.1,0000.0,0007.33,0003.79,0003.58
2024-02-22 15:17:00,SystemResetWarning,0830.7,5.00,000.00,020.3,019.8,000.0,028.8,022.2,25.2,0000.0,0007.19,0003.80,0003.59
2024-02-22 15:18:00,SystemResetWarning,0830.7,5.00,000.00,020.3,019.8,000.0,028.8,022.2,25.2,0000.0,0007.20,0003.83,0003.61
2024-02-22 15:19:00,SystemResetWarning,0830.6,4.99,000.00,020.3,019.8,000.0,028.8,022.2,25.2,0000.0,0007.18,0003.84,0003.62
2024-02-22 15:20:00,SystemResetWarning,0830.6,4.99,000.00,020.3,019.8,000.0,028.8,022.2,25.3,0000.0,0007.12,0003.87,0003.66
2024-02-22 15:21:00,SystemResetWarning,0830.6,5.01,000.00,020.3,019.8,000.0,028.8,022.2,25.4,0000.0,0007.10,0003.91,0003.68
2024-02-22 15:22:00,SystemResetWarning,0830.7,5.01,000.00,020.3,019.8,000.0,028.8,022.2,25.4,0000.0,0007.19,0003.95,0003.72
2024-02-22 15:23:00,SystemResetWarning,0830.7,5.01,000.00,020.3,019.8,000.0,028.8,022.2,25.5,0000.0,0007.37,0004.02,0003.77
2024-02-22 15:24:00,SystemResetWarning,0830.7,4.99,000.00,020.3,019.8,000.0,028.8,022.2,25.4,0000.0,0007.52,0004.08,0003.81
2024-02-22 15:25:00,SystemResetWarning,0830.7,4.99,000.00,020.3,019.8,000.0,028.8,022.1,25.5,0000.0,0007.54,0004.11,0003.85
2024-02-22 15:26:00,SystemResetWarning,0830.7,5.00,000.00,020.3,019.8,000.0,028.8,022.1,25.5,0000.0,0007.11,0004.14,0003.87
2024-02-22 15:27:00,SystemResetWarning,0830.7,5.00,000.00,020.3,019.8,000.0,028.8,022.2,25.4,0000.0,0007.12,0004.18,0003.91
2024-02-22 15:28:00,SystemResetWarning,0830.7,5.00,000.00,020.3,019.8,000.0,028.8,022.2,25.4,0000.0,0007.16,0004.25,0003.95
2024-02-22 15:29:00,SystemResetWarning,0830.8,5.00,000.00,020.3,019.8,000.0,028.8,022.2,25.2,0000.0,0007.39,0004.30,0004.00
2024-02-22 15:30:00,SystemResetWarning,0830.8,5.00,000.00,020.3,019.8,000.0,028.8,022.2,25.2,0000.0,0007.50,0004.35,0004.03
2024-02-22 15:31:00,SystemResetWarning,0830.8,5.02,000.00,020.3,019.8,000.0,028.8,022.2,25.4,0000.0,0007.56,0004.38,0004.06
2024-02-22 15:32:00,SystemResetWarning,0830.8,5.00,000.00,020.3,019.8,000.0,028.8,022.2,26.0,0000.0,0007.59,0004.41,0004.10
2024-02-22 15:33:00,SystemResetWarning,0830.8,4.99,000.00,020.3,019.8,000.0,028.8,022.2,26.5,0000.0,0007.60,0004.44,0004.14
2024-02-22 15:34:00,SystemResetWarning,0830.8,4.99,000.00,020.3,019.8,000.0,028.8,022.2,25.9,0000.0,0007.60,0004.44,0004.15
2024-02-22 15:35:00,SystemResetWarning,0830.9,5.00,000.00,020.3,019.8,000.0,028.8,022.2,25.9,0000.0,0007.51,0004.43,0004.14
2024-02-22 15:36:00,SystemResetWarning,0830.9,5.01,000.00,020.3,019.8,000.0,028.8,022.2,25.9,0000.0,0007.18,0004.42,0004.14
2024-02-22 15:37:00,SystemResetWarning,0830.9,5.00,000.00,020.3,019.8,000.0,028.8,022.2,26.0,0000.0,0006.98,0004.40,0004.12
2024-02-22 15:38:00,SystemResetWarning,0830.9,5.00,000.00,020.3,019.8,000.0,028.8,022.2,26.2,0000.0,0007.02,0004.37,0004.08
2024-02-22 15:39:00,SystemResetWarning,0830.9,5.00,000.00,020.3,019.8,000.0,028.8,022.2,26.3,0000.0,0007.01,0004.32,0004.04
2024-02-22 15:40:00,SystemResetWarning,0830.9,5.00,000.00,020.3,019.8,000.0,028.8,022.2,26.2,0000.0,0007.12,0004.30,0004.04
2024-02-22 15:41:00,SystemResetWarning,0830.9,5.00,000.00,020.3,019.8,000.0,028.8,022.2,26.2,0000.0,0006.96,0004.26,0004.03
2024-02-22 15:42:00,SystemResetWarning,0831.0,5.00,000.00,020.3,019.8,000.0,028.8,022.1,25.9,0000.0,0006.89,0004.24,0004.01
2024-02-22 15:43:00,SystemResetWarning,0831.1,5.00,000.00,020.3,019.8,000.0,028.8,022.1,25.6,0000.0,0006.92,0004.24,0004.00
2024-02-22 15:44:00,SystemResetWarning,0831.1,4.99,000.00,020.3,019.8,000.0,028.8,022.2,25.7,0000.0,0006.94,0004.23,0003.98
2024-02-22 15:45:00,SystemResetWarning,0831.1,5.00,000.00,020.3,019.8,000.0,028.8,022.1,25.7,0000.0,0007.03,0004.22,0003.97
2024-02-22 15:46:00,SystemResetWarning,0831.1,5.00,000.00,020.3,019.8,000.0,028.8,022.1,25.8,0000.0,0007.10,0004.22,0003.96
2024-02-22 15:47:00,SystemResetWarning,0831.2,5.00,000.00,020.3,019.8,000.0,028.8,022.2,25.8,0000.0,0007.00,0004.20,0003.96
2024-02-22 15:48:00,SystemResetWarning,0831.1,5.00,000.00,020.3,019.8,000.0,028.8,022.2,25.8,0000.0,0007.14,0004.21,0003.97
2024-02-22 15:49:00,SystemResetWarning,0831.1,5.01,000.00,020.3,019.8,000.0,028.8,022.1,25.8,0000.0,0007.18,0004.24,0003.99
2024-02-22 15:50:00,SystemResetWarning,0831.2,5.00,000.00,020.3,019.8,000.0,028.8,022.1,25.9,0000.0,0007.41,0004.25,0004.00
2024-02-22 15:51:00,SystemResetWarning,0831.2,5.00,000.00,020.3,019.8,000.0,028.8,022.1,26.0,0000.0,0007.18,0004.20,0003.97
2024-02-22 15:52:00,SystemResetWarning,0831.2,5.00,000.00,020.3,019.8,000.0,028.8,022.1,26.0,0000.0,0006.95,0004.15,0003.93
2024-02-22 15:53:00,SystemResetWarning,0831.2,5.00,000.00,020.3,019.8,000.0,028.8,022.1,25.9,0000.0,0006.86,0004.12,0003.90
2024-02-22 15:54:00,SystemResetWarning,0831.2,5.00,000.00,020.3,019.8,000.0,028.8,022.1,25.8,0000.0,0006.77,0004.09,0003.88
2024-02-22 15:55:00,SystemResetWarning,0831.2,5.00,000.00,020.3,019.8,000.0,028.8,022.1,25.8,0000.0,0006.67,0004.05,0003.85
2024-02-22 15:56:00,SystemResetWarning,0831.2,5.00,000.00,020.3,019.8,000.0,028.8,022.1,25.8,0000.0,0006.42,0004.03,0003.83
2024-02-22 15:57:00,SystemResetWarning,0831.2,5.01,000.00,020.3,019.8,000.0,028.8,022.1,25.8,0000.0,0006.30,0003.99,0003.80
2024-02-22 15:58:00,SystemResetWarning,0831.2,5.00,000.00,020.3,019.8,000.0,028.8,022.1,26.0,0000.0,0006.37,0003.98,0003.77
2024-02-22 15:59:00,SystemResetWarning,0831.2,4.99,000.00,020.3,019.8,000.0,028.8,022.1,26.1,0000.0,0006.07,0003.93,0003.74
